Location: Laura�t
(43.9341°N, 0.2497°E)
Time: 00:26:25
(UTC+00:00)

DMSP B5D1-3 - Pass Details

Date: 03 March 2021
Orbit: 767 x 780 km, 98.5° (Epoch: 17 April)

Event Time Altitude Azimuth Distance (km) Brightness Sun altitude
Rises 18:47:55 0° 14° (NNE) 3,272 7.6 -11.2°
Reaches altitude 10° 18:50:15 10° 16° (NNE) 2,341 6.9 -11.6°
Maximum altitude 18:55:25 79° 103° (ESE) 801 4.5 -12.5°
Drops below altitude 10° 19:00:34 10° 190° (S) 2,327 7.1 -13.5°
Sets 19:02:52 0° 192° (SSW) 3,250 7.9 -13.9°
